| time (UTC) | temp F | wind direction | speed MPH | gust MPH | rain 1hr in | rain 24hr in | rain mn in | humidity % | barometer mb |
| 20260503211735 | 83 | 86 | 4.0 | 6.0 | 0.00 | 0.00 | 0.00 | 37 | |
| 20260503204735 | 82 | 125 | 1.0 | 3.0 | 0.00 | 0.00 | 0.00 | 40 | |
| 20260503201732 | 80 | 106 | 1.0 | 2.0 | 0.00 | 0.00 | 0.00 | 41 | |
| 20260503194731 | 82 | 174 | 2.0 | 2.0 | 0.00 | 0.00 | 0.00 | 40 | |
| 20260503191731 | 81 | 75 | 1.0 | 3.0 | 0.00 | 0.00 | 0.00 | 43 | |
| 20260503184727 | 80 | 340 | 0.0 | 2.0 | 0.00 | 0.00 | 0.00 | 43 | |
| 20260503181721 | 81 | 148 | 2.0 | 2.0 | 0.00 | 0.00 | 0.00 | 45 | |
| 20260503174720 | 80 | 170 | 1.0 | 2.0 | 0.00 | 0.00 | 0.00 | 44 | |
| 20260503171717 | 78 | 114 | 1.0 | 3.0 | 0.00 | 0.00 | 0.00 | 46 | |
| 20260503081629 | 53 | 138 | 0.0 | 0.0 | 0.00 | 0.00 | 0.00 | 99 | |
| 20260503071625 | 54 | 138 | 0.0 | 0.0 | 0.00 | 0.00 | 0.00 | 99 | |
| 20260503054614 | 55 | 138 | 0.0 | 0.0 | 0.00 | 0.00 | 0.00 | 98 | |
| 20260503051613 | 55 | 138 | 0.0 | 0.0 | 0.00 | 0.00 | 0.00 | 97 | |
| 20260503044613 | 57 | 138 | 0.0 | 0.0 | 0.00 | 0.00 | 0.00 | 96 | |
| 20260503041611 | 57 | 138 | 0.0 | 0.0 | 0.00 | 0.00 | 0.00 | 95 | |
| 20260503034606 | 58 | 138 | 0.0 | 0.0 | 0.00 | 0.00 | 0.00 | 93 | |
| 20260503031603 | 59 | 137 | 0.0 | 0.0 | 0.00 | 0.00 | 0.00 | 91 | |
| 20260503024602 | 60 | 137 | 0.0 | 0.0 | 0.00 | 0.00 | 0.00 | 89 | |
| 20260503021600 | 61 | 137 | 0.0 | 0.0 | 0.00 | 0.00 | 0.00 | 85 | |
| 20260503014557 | 63 | 137 | 0.0 | 0.0 | 0.00 | 0.00 | 0.00 | 81 | |
| 20260503011557 | 66 | 137 | 0.0 | 0.0 | 0.00 | 0.00 | 0.00 | 74 | |
| 20260503004555 | 70 | 100 | 0.0 | 1.0 | 0.00 | 0.00 | 0.00 | 62 | |
| 20260503001555 | 73 | 7 | 2.0 | 2.0 | 0.00 | 0.00 | 0.00 | 53 | |
| 20260502234553 | 74 | 328 | 1.0 | 6.0 | 0.00 | 0.00 | 0.00 | 51 | |
| 20260502231550 | 75 | 298 | 2.0 | 3.0 | 0.00 | 0.00 | 0.00 | 49 | |
| 20260502224545 | 77 | 17 | 4.0 | 7.0 | 0.00 | 0.00 | 0.00 | 49 | |
| 20260502221544 | 77 | 301 | 3.0 | 3.0 | 0.00 | 0.00 | 0.00 | 47 | |
| 20260502214543 | 77 | 228 | 4.0 | 6.0 | 0.00 | 0.00 | 0.00 | 48 |